#timestamp,LO_Frequency,Hit,StdDev 
1520308815.2,286047000.7,N
1520308835.1,286047002.8,N
1520308836.0,286047002.8,N
1520308855.8,286047001.1,N
1520308875.6,286046999.5,N
1520308895.5,286046999.6,N
1520308915.3,286046998.6,N
1520308935.2,286046999.0,N
1520308955.9,286046999.6,N
1520308975.7,286046994.9,Y
1520308995.6,286046996.8,P
1520309015.4,286046996.9,N
1520309035.2,286046997.4,N
1520309055.1,286046995.2,Y
1520309056.0,286046995.2,P
1520309075.8,286046996.9,N
1520309095.7,286047000.6,N
1520309115.5,286047001.8,N
1520309135.3,286047003.5,N
1520309155.2,286047004.0,N
1520309175.0,286047002.2,N
1520309175.9,286047002.2,N
1520309195.8,286047001.5,N
1520309215.6,286047003.0,N
1520309235.4,286047003.1,N
1520309255.3,286047001.3,N
1520309275.1,286047001.3,N
1520309295.8,286047001.4,N
1520309315.7,286047001.3,N
1520309335.5,286047003.3,N
1520309355.4,286047006.0,N
1520309375.2,286047005.8,N
1520309395.0,286047004.2,N
1520309395.9,286047004.2,N
1520309415.8,286047003.9,N
1520309435.6,286047002.0,N
1520309455.4,286047000.3,N
1520309475.3,286046998.7,N
1520309495.1,286047001.2,N
1520309515.9,286046998.4,N
1520309535.7,286046999.0,N
1520309555.5,286046999.0,N
1520309575.4,286047004.4,N
1520309595.2,286047004.1,N
1520309615.0,286047005.5,N
1520309615.9,286047005.5,N
1520309635.8,286047003.4,N
1520309655.6,286047003.3,N
1520309675.5,286047003.7,N
1520309695.3,286047001.9,N
1520309715.1,286047003.2,N
1520309735.9,286047001.4,N
1520309755.7,286047004.2,N
1520309775.5,286047001.4,N
1520309795.4,286047003.7,N
1520309815.2,286047007.5,Y
1520309835.0,286047004.3,P
1520309836.0,286047004.3,P
1520309855.8,286047002.0,N
1520309875.6,286047001.9,N
1520309895.5,286047001.8,N
1520309915.3,286047000.4,N
1520309935.1,286046999.7,N
1520309955.9,286047002.5,N
1520309975.7,286047000.8,N
1520309995.5,286046998.5,N
1520310015.4,286047001.2,N
1520310065.3,286047000.7,E
1520310075.2,286047000.0,N
1520310095.0,286047000.1,P
1520310095.9,286047000.1,N
1520310115.8,286047002.3,Y
1520310135.6,286047001.0,P
1520310155.4,286046998.7,N
1520310175.3,286046998.2,N
1520310195.1,286047000.5,N
1520310215.8,286047000.9,N
1520310235.7,286047003.2,N
1520310255.5,286047004.0,N
1520310275.4,286047001.4,N
1520310295.2,286047003.9,N
1520310315.0,286047001.5,N
1520310315.9,286047001.5,N
1520310335.8,286047000.5,N
1520310355.6,286046998.4,N
1520310375.4,286046999.0,N
1520310395.3,286046998.2,N
1520310415.1,286047000.9,N
1520310435.9,286046998.6,N
1520310455.7,286046996.6,N
1520310475.5,286046997.4,N
1520310495.4,286046995.2,N
1520310515.2,286046995.8,N
1520310535.0,286046993.3,N
1520310535.9,286046993.3,N
1520310555.8,286046995.3,N
1520310575.6,286046997.7,N
1520310595.5,286046999.4,N
1520310615.3,286046999.2,N
1520310635.1,286046997.1,N
1520310655.9,286046997.6,N
1520310675.7,286046996.9,N
1520310695.5,286046997.5,N
1520310715.4,286046997.6,N
1520310735.2,286046997.5,N
1520310755.1,286046995.1,N
1520310756.0,286046995.1,N
1520310775.8,286046996.1,N
1520310795.6,286046995.8,N
1520310815.5,286046996.1,N
1520310835.3,286046995.2,N
1520310855.1,286046997.3,N
1520310875.9,286046996.9,N
1520310895.7,286046999.5,N
1520310915.6,286046996.5,N
1520310935.4,286046997.5,N
1520310955.2,286046999.0,N
1520310975.1,286047000.4,N
1520310976.0,286047000.4,N
1520310995.8,286047000.7,N
1520311015.6,286046998.5,N
1520311035.5,286047001.2,N
1520311055.3,286046996.9,N
1520311075.2,286046998.9,N
1520311095.9,286047000.9,N
1520311115.7,286046999.7,N
1520311135.6,286046999.7,N
1520311155.4,286047000.3,N
1520311175.2,286047001.3,N
1520311195.1,286047000.3,N
1520311196.0,286047000.3,N
1520311215.8,286047002.3,N
1520311235.7,286046999.9,N
1520311255.5,286047001.7,N
1520311275.3,286046998.2,N
1520311295.2,286046998.7,N
1520311315.0,286046998.1,N
1520311315.9,286046998.1,N
1520311335.7,286046998.6,N
1520311355.6,286047000.2,N
1520311375.4,286047004.3,N
1520311395.3,286047003.6,N
1520311415.1,286047003.9,N
1520311416.0,286047003.9,N
1520311435.8,286047003.0,N
1520311455.7,286047005.4,N
1520311475.5,286047004.4,N
1520311495.3,286047000.1,N
1520311515.2,286046999.8,N
1520311535.0,286047001.5,N
1520311535.9,286047001.5,N
1520311555.8,286047003.8,N
1520311575.6,286047001.4,N
1520311595.4,286046999.8,N
1520311615.3,286047001.9,N
1520311635.1,286047004.3,N
1520311655.9,286047004.1,N
1520311675.7,286047003.2,N
1520311695.5,286047006.0,N
1520311715.4,286047005.1,N
1520311735.2,286047004.5,N
1520311755.0,286047004.9,N
1520311755.9,286047004.9,N
1520311775.8,286047004.8,N
1520311795.6,286047003.0,N
1520311815.5,286047002.2,N
1520311835.3,286047004.4,N
1520311855.1,286047003.1,N
1520311875.9,286047005.5,N
1520311895.7,286047005.8,Y
1520311915.5,286047002.7,P
1520311935.4,286047000.9,N
1520311955.2,286046998.2,N
1520311975.1,286046998.8,N
1520311976.0,286046998.8,N
1520311995.8,286046997.5,N
1520312015.6,286046998.0,N
1520312035.5,286046996.9,N
1520312055.3,286046996.6,N
1520312075.1,286046995.2,N
1520312095.9,286046995.6,N
1520312115.7,286046996.9,N
1520312135.6,286047000.7,N
1520312155.4,286047000.5,N
1520312175.2,286047000.3,N
1520312195.1,286047000.3,N
1520312196.0,286047000.3,N
1520312215.8,286047000.7,N
1520312235.6,286047002.3,N
1520312255.5,286047003.7,N
1520312275.3,286047002.1,N
1520312295.1,286047000.2,N
1520312315.9,286046998.2,N
1520312335.7,286047000.6,N
1520312355.6,286047000.9,N
1520312375.4,286046998.4,N
1520312395.2,286047002.4,N
